Hanford, CA

2:53 AM PST on December 17, 2017 (GMT -0800)
Hanford Municipal

Weather History for KHJO - April, 2012

Change the Weather History Date:

Thursday, April 12, 2012

  Actual Average Record
Temperature  
Mean Temperature 52 °F 60 °F  
Max Temperature 60 °F 74 °F 90 °F (2008)
Min Temperature 43 °F 46 °F 41 °F (2009)
Degree Days  
Heating Degree Days 13    
Month to date heating degree days 112  
Since 1 July heating degree days 2604  
Cooling Degree Days 0    
Month to date cooling degree days 0  
Year to date cooling degree days 0  
Growing Degree Days 2 (Base 50)    
Moisture  
Dew Point 46 °F    
Average Humidity 80    
Maximum Humidity 96    
Minimum Humidity 64    
Precipitation  
Precipitation 0.05 in 0.02 in 0.08 in (2010)
Month to date precipitation 0.78 0.30  
Year to date precipitation 3.54 5.70  
Since 1 July precipitation 4.78  
Snow  
Snow 0.00 in - - ()
Month to date snowfall 0.0  
Since 1 July snowfall 0.0  
Snow Depth 0.00 in    
Sea Level Pressure  
Sea Level Pressure 30.09 in    
Wind  
Wind Speed 7 mph (SE)    
Max Wind Speed 16 mph    
Max Gust Speed 18 mph    
Visibility 10 miles    
Events Rain    
T = Trace of Precipitation, MM = Missing Value Source: NWS Daily Summary

Daily Weather History Graph

Daily Weather History Graph

Search for Another Location

Airport or City:

Trip Planner

Search our weather history database for the weather conditions in past years. The results will help you decide how hot, cold, wet, or windy it might be!

Date:

Astronomy

Apr. 12, 2012 Rise Set
Actual Time 6:28 AM PDT 7:30 PM PDT
Civil Twilight 6:01 AM PDT 7:56 PM PDT
Nautical Twilight 5:30 AM PDT 8:28 PM PDT
Astronomical Twilight 4:58 AM PDT 9:00 PM PDT
Moon 1:16 AM PDT (4/12) 11:33 AM PDT (4/12)
Length of Visible Light 13h 54m
Length of Day
13h 02m
Waning Gibbous, 57% of the Moon is Illuminated
Apr 12
Waning Gibbous
Apr 13
Last Quarter
Apr 21
New
Apr 29
First Quarter
May 5
Full

Hourly Weather History & Observations

Time (PDT) Temp. Windchill Dew Point Humidity Pressure Visibility Wind Dir Wind Speed Gust Speed Precip Events Conditions
12:53 AM 46.0 °F 42.5 °F 44.1 °F 93% 30.11 in 9.0 mi SSW 6.9 mph - N/A   Clear
1:53 AM 45.0 °F 41.8 °F 42.1 °F 90% 30.10 in 10.0 mi SSW 5.8 mph - N/A   Clear
2:53 AM 44.1 °F 40.8 °F 42.1 °F 93% 30.11 in 10.0 mi ESE 5.8 mph - N/A   Clear
3:53 AM 43.0 °F 38.2 °F 41.0 °F 93% 30.13 in 10.0 mi SE 8.1 mph - N/A   Clear
4:53 AM 43.0 °F 41.3 °F 41.0 °F 93% 30.13 in 10.0 mi ESE 3.5 mph - N/A   Clear
5:53 AM 44.1 °F 40.1 °F 41.0 °F 89% 30.13 in 10.0 mi SE 6.9 mph - N/A   Clear
6:53 AM 45.0 °F 41.2 °F 42.1 °F 90% 30.14 in 10.0 mi ESE 6.9 mph - N/A   Mostly Cloudy
7:53 AM 50.0 °F - 45.0 °F 83% 30.13 in 10.0 mi ESE 5.8 mph - N/A   Mostly Cloudy
8:53 AM 53.1 °F - 46.0 °F 77% 30.13 in 10.0 mi SE 5.8 mph - N/A   Clear
9:53 AM 55.0 °F - 46.0 °F 72% 30.14 in 10.0 mi SE 8.1 mph - N/A   Overcast
10:53 AM 55.0 °F - 46.0 °F 72% 30.16 in 10.0 mi SSE 5.8 mph - 0.00 in Rain Light Rain
11:53 AM 55.0 °F - 48.9 °F 80% 30.16 in 10.0 mi ESE 4.6 mph - 0.03 in Rain Light Rain
12:53 PM 57.9 °F - 48.9 °F 72% 30.14 in 10.0 mi ESE 4.6 mph - 0.02 in Rain Light Rain
1:53 PM 59.0 °F - 48.0 °F 67% 30.11 in 10.0 mi ESE 11.5 mph - 0.00 in   Overcast
2:53 PM 57.9 °F - 46.9 °F 67% 30.09 in 10.0 mi SE 10.4 mph - 0.00 in   Overcast
3:53 PM 60.1 °F - 48.0 °F 64% 30.06 in 10.0 mi SE 10.4 mph - N/A   Scattered Clouds
4:53 PM 60.1 °F - 48.0 °F 64% 30.03 in 10.0 mi SE 12.7 mph - N/A   Clear
5:53 PM 57.9 °F - 48.0 °F 70% 30.02 in 10.0 mi SE 9.2 mph - N/A   Partly Cloudy
6:53 PM 57.9 °F - 48.0 °F 70% 30.02 in 10.0 mi SE 9.2 mph - N/A   Mostly Cloudy
7:53 PM 57.0 °F - 48.0 °F 72% 30.01 in 10.0 mi SE 5.8 mph - N/A   Overcast
8:53 PM 55.0 °F - 48.0 °F 77% 30.02 in 10.0 mi SE 5.8 mph - N/A   Partly Cloudy
9:53 PM 55.0 °F - 48.0 °F 77% 30.02 in 10.0 mi SE 4.6 mph - N/A   Overcast
10:53 PM 55.0 °F - 46.9 °F 74% 30.01 in 10.0 mi ESE 3.5 mph - N/A   Mostly Cloudy
11:53 PM 54.0 °F - 48.0 °F 80% 29.99 in 10.0 mi SE 5.8 mph - N/A   Mostly Cloudy